FENGYUN 3C

Last updated on Sat Aug 15 2026 00:02:40 GMT+0000 (Coordinated Universal Time)

1 39260U 13052A 26226.63194785 .00000002 00000+0 22102-4 0 9994 2 39260 98.5039 197.8394 0013916 211.4079 148.6266 14.15766019666833
UTC large
Height (km)
Speed (km/s)
/
Latitude / Longitude
Inclination (degrees)
Orbital Period (minutes)
Azimuth
Elevation
Range (km)
Doppler Factor

Next 0 passes for location: London (51.5072 / 0.1276)

No passes found over London.
FENGYUN 3C